Weather in Lar

Iran     27°41′34″N   54°20′52″E
temp.,
°C
wind,
m/s
gust,
m/s
humid.,
%
clouds,
%
prec.,
mm/h
press.,
hPa
HPBL,
m
21 january, fri
fri2100:30+7w611540 0.0 1018370
03:30+6w712610 0.0 1017459
06:30+4w610740 0.0 1019501
09:30+5wnw57623 0.0 1020618
12:30+8nw34480 0.0 1018832
15:30+10wnw23390 0.0 1016955
18:30+8wnw23480 0.0 101854
21:30+8nnw11510 0.0 102011
22 january, sat
sat2200:30+7nne11490 0.0 102010
03:30+6ne22450 0.0 102011
06:30+5nne11410 0.0 102110
09:30+7ne11250 0.0 1022268
12:30+11w11190 0.0 1019721
15:30+12w23180 0.0 1017869
18:30+10wnw22300 0.0 101820
21:30+8wnw22330 0.0 101914
23 january, sun
sun2300:30+7nw22380 0.0 101810
03:30+6wnw11400 0.0 101710
06:30+5nw11410 0.0 101810
09:30+9nne11280 0.0 1019189
12:30+13w12210 0.0 1016575
15:30+14wnw33190 0.0 1015715
18:30+11w22330 0.0 101716
21:30+9w22360 0.0 101810
24 january, mon
mon2400:30+8wnw11370 0.0 101710
03:30+8nw11360 0.0 101610
06:30+7nnw11360 0.0 101710
09:30+12nw12240 0.0 1019164
12:30+15wnw34190 0.0 1016582
15:30+16wnw46230 0.0 1015748
18:30+13w22370 0.0 101713
21:30+11w22420 0.0 101711
25 january, tue
tue2500:30+10nw22420 0.0 101710
03:30+10wnw22410 0.0 101611
06:30+9nw22440 0.0 101811
09:30+14wnw23350 0.0 1019197
12:30+17wnw34330 0.0 1016660
15:30+18wnw34310 0.0 10151012
18:30+15wsw22440 0.0 101712
21:30+13w22480 0.0 101811